Location: Bailleul
(50.3375°N, 2.8513°E)
Time: 19:34:41
(UTC+00:00)

Resurs 01 Rocket - Pass Details

Date: 19 April 2021
Orbit: 634 x 644 km, 97.9° (Epoch: 18 May)

Event Time Altitude Azimuth Distance (km) Brightness Sun altitude
Exits shadow 21:13:40 10° 209° (SSW) 2,021 4.0 -19.7°
Maximum altitude 21:17:22 26° 266° (W) 1,264 3.5 -20.0°
Drops below altitude 10° 21:21:09 10° 324° (NW) 2,054 5.4 -20.4°
Sets 21:23:41 0° 337° (NNW) 2,969 6.4 -20.7°
